523  
ASUS42 KCHS 230425  
RWRCHS  
 
REGIONAL WEATHER ROUNDUP  
NATIONAL WEATHER SERVICE CHARLESTON SC  
1100 PM EST THU FEB 22 2024  
 
NOTE: "FAIR" INDICATES FEW OR NO CLOUDS BELOW 12,000 FEET WITH NO  
SIGNIFICANT WEATHER AND/OR S TO VISIBILITY
.  
 
NOT ALL STATIONS ARE QUALITY CONTROLLED. USE DATA WITH CAUTION,  
ESPECIALLY DEWPOINT OBSERVATIONS.  
 
SCZ027-030-031-034>040-042>050-230500-   
..SOUTHEAST SOUTH CAROLINA
 
 
 
CITY SKY/WX TMP DP RH WIND PRES REMARKS
 
N CHARLESTON MOCLDY 56 44 64 S9 29.87F  
WATERFRONT PRK N/A 60 48 64 SW9 29.73S  
MOUNT PLEASANT MOCLDY 59 48 67 S8G18 29.86F  
JOHNS ISLAND MOCLDY 57 50 77 SW5 29.87F  
PINOPOLIS N/A 55 45 67 VRB3 N/A  
MONCKS CORNER PTCLDY 54 43 66 SW8 29.85F  
SUMMERVILLE MOCLDY 55 46 71 CALM 29.83F  
BEAUFORT MCAS MOCLDY 60 48 64 SW9 29.87S  
BEAUFORT ARPT CLOUDY 59 46 63 SW10G17 29.87S  
HILTON HEAD IS CLOUDY 59 52 77 SW14G21 29.88S  
WALTERBORO MOCLDY 52 41 66 S7 29.86F  
ALLENDALE MOCLDY 55 39 54 S10 29.80F  
   
..SOUTHERN MIDLANDS AND PEE DEE
 
 
 
CITY SKY/WX TMP DP RH WIND PRES REMARKS
 
GEORGETOWN MOCLDY 54 46 76 SW7 29.86F  
KINGSTREE CLOUDY 52 36 54 S6 29.83F  
ORANGEBURG MOCLDY 56 38 50 S13 29.81F  
BARNWELL MOCLDY 55 39 54 S7 29.80F  
AIKEN CLOUDY 61 36 39 SW14 29.78F  
MANNING MOCLDY 54 39 58 SW7 29.82F  
COLUMBIA CLOUDY 58 42 55 S9 29.76F  
SUMTER CLOUDY 57 36 45 S15 29.78F  
FLORENCE CLOUDY 54 35 48 S8 29.81F  
MYRTLE BEACH CLOUDY 56 48 74 SW8 29.86F  
N MYRTLE BEACH MOCLDY 55 49 80 SW12 29.85F  
 

 
 
GAZ063-065-086>088-099>101-113>116-118-119-134>141-150-230500-   
..SOUTHEAST GEORGIA
 
 
 
CITY SKY/WX TMP DP RH WIND PRES REMARKS
 
SAVANNAH ARPT CLOUDY 59 39 47 SW12 29.87R  
HUNTER AAF CLEAR 58 43 56 SW12 29.83S  
FORT STEWART CLEAR 57 42 58 SW8 29.84F  
STATESBORO MOCLDY 59 35 40 S7 29.84F  
SYLVANIA MOCLDY N/A N/A N/A CALM 29.84F  
CLAXTON MOCLDY 61 35 38 SW5 29.86F  
MILLEN MOCLDY 58 38 47 SE7 29.82F  
METTER MOCLDY 59 39 47 S8 29.85S  
REIDSVILLE MOCLDY 59 42 52 SW10 29.86F  
   
..CSRA, CENTRAL AND FAR SOUTHEAST GEORGIA
 
 
 
CITY SKY/WX TMP DP RH WIND PRES REMARKS
 
THOMSON CLOUDY 61 39 44 S10G21 29.75F  
AUGUSTA-BUSH MOCLDY 58 36 43 S10 29.78F  
AUGUSTA-DANIEL MOCLDY 60 35 39 S12 29.78F  
SWAINSBORO MOCLDY 59 39 47 SW8 29.84F  
VIDALIA MOCLDY 59 43 55 SW9 29.86F  
EASTMAN CLOUDY 55 45 67 SW8 29.87S  
HAZLEHURST PTCLDY 58 46 66 SW12G17 29.86S  
ALMA MOCLDY 59 43 55 S12 29.88F  
WAYCROSS PTCLDY 57 42 57 SW12 29.90F  
JESUP MOCLDY 59 43 55 SW6 29.91F  
BAXLEY MOCLDY 55 43 62 SW9 29.87F  
BRUNSWICK PTCLDY 56 38 50 SW14 29.90F  
SAINT SIMONS PTCLDY 55 45 67 SW9G15 29.89F  
 

 
 
SCZ027-028-034-036>038-045-046-048>050-GAZ119-141-230500-   
..LAKE AND SUPPLEMENTAL COASTAL OBSERVATIONS
 
 
 
STATION/POSITION TIME TEMP WIND PRES WAVE SWELL
 
AIR SEA DIR/SP/G HT/PER HT/PER/DIR  
(UTC) (F) (DEG/KT/KT) (MB) (FT/S) (FT/S/D)  
WINYAH BAY 0345 55 230/ 6 1011.0F  
LAKE MURRAY 0350 57 190/ 8/ 11 N/A  
CHRLSTN HARBOR 0342 59 54 220/ 10/ 14 1011.9F  
ACE BASIN NERRS 0345 58 CALM 1013.0S  
FORT PULASKI 0342 58 56 220/ 11/ 15 1011.4S  
SAPELO ISLAND 0400 54 210/ 10 1012.0  
 

 
 
ANZ835-935-AMZ111-154-330-350-352-354-370-450-454-472-230500-   
..C-MAN AND BUOY OBSERVATIONS
 
 
 
STATION/POSITION TIME TEMP WIND PRES WAVE SWELL
 
AIR SEA DIR/SP/G HT/PER HT/PER/DIR  
(UTC) (F) (DEG/KT/KT) (MB) (FT/S) (FT/S/D)  
BUOY 41004 0410 67 68 220/ 21/ 27 1011.7  
BUOY 41008 0410 59 57 210/ 16/ 21 1012.4  
FOLLY BEACH CMAN NOT AVBL  
CHAS PILOT BUOY NOT AVBL  
CHAS PILOT WAVE 0302 N/A 4/10  
CAPERS NEARSHORE 0308 58 210/ 14/ 17 1010.9F  
CAPERS NS WAVE 0322 N/A 2/13  
FRIPP NEARSHORE NOT AVBL  
FRIPP NS WAVE 0300 56 N/A 3/13  
 
 
STATION/POSITION TIME TEMP WIND PRES WAVE SWELL
 
AIR SEA DIR/SP/G HT/PER HT/PER/DIR  
(UTC) (F) (DEG/KT/KT) (MB) (FT/S) (FT/S/D)  
5E ST. MARYS GA 0300 58 57 N/A 3/14 2/100/14  
FRYING PAN BUOY 0400 66 61 210/ 21/ 29 1010.9  
BUOY 41025 0400 210/ 23/ 31 1009.7  
CAPE LOOKOUT NC 0400 54 210/ 9/ 11 1011.0F  
BUOY 41002 0400 67 72 220/ 14/ 19 1013.4  
BUOY 41010 NOT AVBL  
ST AUGUSTINE FL 0400 56 60 220/ 5/ 5 1013.8F  
 

 
 
 
CLICK HERE TO GO TO PREVIOUS BULLETINS.

The Nexlab SC Page
The Nexlab GA Page Main Text Page